Location: Laporte
(40.6264°N, 105.1378°W)
Time: 13:55:32
(UTC+00:00)

Envisat - Pass Details

Date: 21 August 2022
Orbit: 764 x 765 km, 98.2° (Epoch: 26 September)

Event Time Altitude Azimuth Distance (km) Brightness Sun altitude
Rises 10:44:55 0° 22° (NNE) 3,239 7.2 -16.7°
Reaches altitude 10° 10:47:27 10° 32° (NNE) 2,308 6.5 -16.3°
Maximum altitude 10:52:03 34° 97° (E) 1,241 4.6 -15.5°
Drops below altitude 10° 10:56:37 10° 162° (SSE) 2,292 5.3 -14.8°
Sets 10:59:06 0° 171° (S) 3,213 6.0 -14.4°
